Regional Weather Roundup
Issued by NWS

Home | Current Version | Previous Version | Text Only | Print | Product List | Glossary On
Versions: 1 2 3 4 5 6 7 8 9 10 11 12 13 14 15 16 17 18 19 20 21 22 23 24 25 26 27 28 29 30 31 32 33 34 35 36 37 38 39 40 41 42 43 44 45 46 47 48 49 50
000
ASUS43 KMKX 011721
RWRWI

WISCONSIN REGIONAL WEATHER ROUNDUP
NATIONAL WEATHER SERVICE MILWAUKEE/SULLIVAN WI
1200 PM CDT TUE SEP 01 2015

NOTE: "FAIR" INDICATES FEW OR NO CLOUDS BELOW 12,000 FEET WITH NO
SIGNIFICANT WEATHER AND/OR OBSTRUCTIONS TO VISIBILITY.

WIZ001-002-006>008-014>016-023>028-011800-
NORTHWEST WISCONSIN

CITY           SKY/WX    TMP DP  RH WIND       PRES   REMARKS
SUPERIOR ARPT  CLOUDY    76  71  84 SW6       29.90S
ASHLAND        CLOUDY    78  73  84 VRB7      29.91S HX  81
HAYWARD        PTSUNNY   80  69  69 S8        29.94S HX  83
SIREN          PTSUNNY   79  69  72 SW3       29.93S HX  81
CUMBERLAND     PTSUNNY   79  70  73 SW6       29.95S HX  81
RICE LAKE      PTSUNNY   80  68  68 S7        29.95F HX  82
CHETEK         PTSUNNY  N/A N/A N/A MISG      29.94F
LADYSMITH      MOSUNNY   81  70  69 S7        29.97S HX  84
EAU CLAIRE     MOSUNNY   81  69  67 S6        29.93F HX  84
MENOMONIE      PTSUNNY   84  70  62 S8        29.93F HX  89
NEW RICHMOND   PTSUNNY   82  68  63 S8        29.93F HX  85
OSCEOLA        PTSUNNY   80  69  69 SE5       29.95S HX  83
$$

WIZ003>005-009-010-017-018-011800-
NORTH CENTRAL WISCONSIN

CITY           SKY/WX    TMP DP  RH WIND       PRES   REMARKS
MANITOWISH WTR PTSUNNY   78  68  70 SW10G16   29.97S HX  80
ARBOR VITAE    MOSUNNY   80  69  70 SW10G17   29.96F HX  82
WOODRUFF       MOSUNNY   80  69  70 SW10G17   29.96F HX  82
RHINELANDER    MOSUNNY   79  69  71 SW8       29.99F HX  81
EAGLE RIVER    MOSUNNY   80  65  61 SW9G17    29.97F HX  81
LAND O LAKES   SUNNY     81  65  57 SW8G20    29.97F HX  82
PHILLIPS       PTSUNNY   79  69  72 S9        29.96F HX  81
TOMAHAWK       PTSUNNY   77  69  76 CALM      29.98F
MEDFORD        MOSUNNY   78  68  71 SW8       29.98F HX  81
MERRILL        MOSUNNY   80  72  77 SW7       29.98F HX  84
$$

WIZ029-030-035-036-043>047-011800-
CENTRAL WISCONSIN

CITY           SKY/WX    TMP DP  RH WIND       PRES   REMARKS
WAUSAU         MOSUNNY   82  71  69 S10       29.96F HX  86
MOSINEE        NOT AVBL
MARSHFIELD     MOSUNNY   81  67  62 SW8       29.98F HX  83
STEVENS POINT  MOSUNNY   81  68  63 SW6       29.98F HX  84
WAUPACA        SUNNY     86  71  60 SW7       29.97F HX  92
WAUTOMA        MOSUNNY   87  72  61 VRB7      29.98F HX  93
WISC RAPIDS    MOSUNNY   85  68  56 VRB6      29.99F HX  88
CAMP DOUGLAS   MOSUNNY   84  73  70 S9        29.96F HX  91
$$

WIZ011>013-019>022-031-037>040-048>050-011800-
NORTHEAST WISCONSIN

CITY           SKY/WX    TMP DP  RH WIND       PRES   REMARKS
ANTIGO         PTSUNNY   81  71  71 SW9       29.99F HX  85
SHAWANO        MOSUNNY   83  72  69 S3        29.97F HX  89
OCONTO         MOSUNNY   82  76  81 SE5       29.95F HX  89
STURGEON BAY   MOSUNNY   82  72  69 SE10      29.99F HX  87
GREEN BAY      SUNNY     83  73  72 SW5       29.97F HAZE    HX  89
MANITOWOC      SUNNY     77  70  79 MISG      29.99F
APPLETON       MOSUNNY   82  70  65 S6        29.98F HX  86
CLINTONVILLE   SUNNY     84  72  65 S6        29.97F HX  89
OSHKOSH        SUNNY     84  74  71 S8        29.98F HX  91
$$

WIZ032>034-041-042-053>061-011800-
SOUTHWEST WISCONSIN

CITY           SKY/WX    TMP DP  RH WIND       PRES   REMARKS
LA CROSSE      SUNNY     84  71  65 S13       29.94F HX  89
SPARTA         SUNNY     85  68  56 S6        29.96F HX  88
VIROQUA          N/A     83  72  69 S7        29.98F HX  87
BOSCOBEL       SUNNY    N/A N/A N/A MISG      29.97F
PRAIRIE DU CHI SUNNY     83  69  63 S7        29.97S HX  86
PLATTEVILLE    SUNNY     82  74  77 S8        30.01S HX  89
$$

WIZ056-057-062-063-064-067-068-011800-
SOUTH CENTRAL WISCONSIN

CITY           SKY/WX    TMP DP  RH WIND       PRES   REMARKS
REEDSBURG      SUNNY     84  72  65 S6        29.98F HX  90
BARABOO/DELLS  SUNNY     85  65  50 S8        29.99F HX  87
LONE ROCK      SUNNY     86  72  62 S8        29.98F HX  92
MINERAL POINT  SUNNY     84  72  65 S9        30.01S HX  89
MADISON        MOSUNNY   85  69  58 S12       29.99F HX  89
MIDDLETON      SUNNY     87  68  52 S9        30.00F HX  90
WATERTOWN      SUNNY     85  72  65 SW8       30.01S HX  90
MONROE         SUNNY     82  72  69 S12       30.02F HX  87
JANESVILLE     SUNNY     86  72  62 S12       30.01F HX  92
$$

WIZ051-052-058>065-066-070>072-011800-
SOUTHEAST WISCONSIN

CITY           SKY/WX    TMP DP  RH WIND       PRES   REMARKS
MILWAUKEE      SUNNY     86  70  58 S10       30.01F HX  90
WAUKESHA       SUNNY     82  70  65 SW5       30.03F HX  86
MILWAUKEE/TIMM SUNNY     84  66  54 SW10      30.01F HX  86
RACINE         SUNNY     86  72  62 SE10      30.03F HX  92
BURLINGTON     SUNNY     84  68  58 S8        30.02S HX  87
KENOSHA        SUNNY     86  72  62 S7        30.03F HX  92
FOND DU LAC    SUNNY     83  73  72 SW9       29.99F HX  89
SHEBOYGAN      SUNNY     85  74  69 SW12      29.99F HX  92
WEST BEND      SUNNY     84  66  54 SW8       30.01S HX  86
JUNEAU         SUNNY     82  72  71 SW8       30.02F HX  87
$$

LSZ147-162-011800-
LAKE SUPERIOR

STATION/POSITION TIME  TEMP    WIND        PRES    WAVE
                       AIR SEA DIR/SP/G            HT/PER
                 (UTC) (F)     (DEG/KT/KT) (MB)    (FT/S)
W MID LAKE BUOY  1650   59 55  200/  4/  6 1012.2F   1
DEVILS ISLAND    1700   67     240/ 11/ 14 1012.2F
PORT WING        1600   68     280/  8/  8 1012.9R
SAXON HARBOR     1600   79     210/  6/  9 1012.2S
$$

LMZ867-665-643>646-011800-
LAKE MICHIGAN

STATION/POSITION TIME  TEMP    WIND        PRES    WAVE
                       AIR SEA DIR/SP/G            HT/PER
                 (UTC) (F)     (DEG/KT/KT) (MB)    (FT/S)
CHAMBERS ISLAND  1600   74     170/  4/  8 1015.2S
S GREEN BAY BUOY 1630   72 65  220/  6/  6 1016.6S
N MID LAKE BUOY  1650   67 65  200/ 10/ 12 1015.1F   1/ 4
NORTHPORT PIER   1600   69     150/  7/ 10 1015.2S
SISTER BAY       1619   80     180/  8/  9   N/A
ALGOMA LAKESHORE 1514             CALM       N/A
KEWAUNEE LAKESHO 1700   54     160/  9/ 11 1014.4F
SHEBOYGAN LAKESH 1700   67     180/ 20/ 21 1015.5F
PORT WASHINGTON  1600   66     170/  3/  4 1016.9F
ATWATER BUOY     1700   60 53  160/  8/ 10 1017.4F
MILWAUKEE LAKESH 1710   65      30/  1/  3   N/A
S MID LAKE BUOY  1650   71 70  180/ 12/ 14 1016.8F   1/ 3
KENOSHA   LAKESH 1700   66     180/ 11/ 14 1016.3F
$$

TC  - TEMPERATURE IN CELSIUS
VSB - VISIBILITY IN STATUTE MILES
WCI - WIND CHILL INDEX
HX  - HEAT INDEX




USA.gov is the U.S. government's official web portal to all federal, state and local government web resources and services.